This is the latest recevied weather packets stored in our database for station/object DM4XI-13. If no packets are shown the sender has not sent any weather packets the latest 10 day(s).
| Time | Temp. | Humidity | Pressure | Rain* | Wind** | Luminosity | Snow |
|---|---|---|---|---|---|---|---|
| 1778131188 | 10° C | 90% | 1008.7 hPa | 0 mm | 0.89 m/s, 211° | 52 W/m² | - |
| 1778131127 | 10° C | 90% | 1008.8 hPa | 0 mm | 0.45 m/s, 191° | 50 W/m² | - |
| 1778131066 | 10° C | 90% | 1008.6 hPa | 0 mm | 0.45 m/s, 183° | 50 W/m² | - |
| 1778131006 | 10° C | 90% | 1008.7 hPa | 0 mm | 0.45 m/s, 171° | 53 W/m² | - |
| 1778130944 | 10° C | 90% | 1008.6 hPa | 0 mm | 0.45 m/s, 180° | 58 W/m² | - |
| 1778130883 | 10° C | 90% | 1008.6 hPa | 0 mm | 0.89 m/s, 190° | 64 W/m² | - |
| 1778130822 | 10° C | 90% | 1008.6 hPa | 0 mm | 0.45 m/s, 181° | 68 W/m² | - |
| 1778130761 | 10° C | 90% | 1008.7 hPa | 0 mm | 0.45 m/s, 310° | 65 W/m² | - |
| 1778130700 | 10° C | 90% | 1008.7 hPa | 0 mm | 0.45 m/s, 183° | 60 W/m² | - |
| 1778130639 | 10° C | 90% | 1008.6 hPa | 0 mm | 0.45 m/s, 180° | 59 W/m² | - |
| 1778130578 | 10° C | 90% | 1008.6 hPa | 0 mm | 0.89 m/s, 180° | 61 W/m² | - |
| 1778130517 | 10° C | 89% | 1008.6 hPa | 0 mm | 0.45 m/s, 187° | 66 W/m² | - |
| 1778130456 | 10° C | 89% | 1008.5 hPa | 0 mm | 2.24 m/s, 191° | 70 W/m² | - |
| 1778130395 | 10° C | 91% | 1008.4 hPa | 0 mm | 0.89 m/s, 186° | 73 W/m² | - |
| 1778130334 | 10° C | 90% | 1008.6 hPa | 0 mm | 0.45 m/s, 210° | 72 W/m² | - |
| 1778130273 | 10° C | 91% | 1008.6 hPa | 0 mm | 0.45 m/s, 262° | 71 W/m² | - |
| 1778130212 | 10° C | 91% | 1008.6 hPa | 0 mm | 0.45 m/s, 271° | 69 W/m² | - |
| 1778130151 | 10° C | 91% | 1008.5 hPa | 0 mm | 0.89 m/s, 193° | 65 W/m² | - |
| 1778130090 | 10° C | 91% | 1008.4 hPa | 0 mm | 0.89 m/s, 183° | 61 W/m² | - |
| 1778130029 | 10° C | 92% | 1008.4 hPa | 0 mm | 0.45 m/s, 164° | 57 W/m² | - |
| 1778129968 | 10° C | 93% | 1008.4 hPa | 0 mm | 0.45 m/s, 186° | 55 W/m² | - |
| 1778129907 | 10° C | 92% | 1008.6 hPa | 0 mm | 1.34 m/s, 210° | 55 W/m² | - |
| 1778129846 | 10° C | 92% | 1008.5 hPa | 0 mm | 0 m/s | 57 W/m² | - |
| 1778129786 | 10° C | 92% | 1008.4 hPa | 0 mm | 1.34 m/s, 178° | 56 W/m² | - |
| 1778129724 | 10° C | 92% | 1008.6 hPa | 0 mm | 1.34 m/s, 176° | 55 W/m² | - |
* Rain latest hour (hover to see other rain measurements)
** Current wind speed in m/s (hover to see current wind gust speed)